Location: Pella
(41.4080°N, 92.9160°W)
Time: 02:18:22
(UTC-05:00)

Daily predictions for brighter satellites

Satellite Brightness Start Highest point End
(mag) Time Altitude Azimuth Time Altitude Azimuth Time Altitude Azimuth
ATLAS 2AS CENTAUR R/B 4.5 00:00:58 10° NNW 00:07:59 31° NE 00:14:38 10° E
NOSS 3-1 (A) 4.0 00:01:18 10° NW 00:08:59 86° NE 00:12:02 44° SE
Cosmos 1733 3.9 00:06:16 10° NNW 00:09:18 51° NW 00:09:18 51° NW
Cosmos 2098 Rocket 3.7 00:07:16 10° N 00:12:14 68° E 00:12:52 62° ESE
CZ-4B R/B 4.3 00:07:55 10° N 00:12:50 47° WNW 00:14:24 36° WSW
Cosmos 1378 4.3 00:16:45 40° NNE 00:16:45 40° NNE 00:19:15 10° NNE
Terra 3.6 00:17:36 19° WSW 00:18:21 20° W 00:21:50 10° NW
ATLAS CENTAUR R/B 2.8 00:16:43 10° NW 00:18:44 28° WNW 00:18:44 28° WNW
Cosmos 2322 4.1 00:18:27 10° NNW 00:23:58 51° ENE 00:25:00 45° E
ARGOS Delta rocket 4.1 00:22:00 10° NNE 00:27:24 69° E 00:27:36 68° ESE
USA 32 3.9 00:28:59 82° SSW 00:29:13 87° W 00:34:31 10° N
Cosmos 1833 4.0 00:30:32 74° SE 00:30:46 76° ESE 00:36:28 10° NNE
Cosmos 2360 Rocket 2.2 00:27:14 10° NNW 00:32:55 71° ENE 00:33:33 65° ESE
Cosmos 1980 Rocket 4.2 00:30:13 10° WNW 00:33:16 15° W 00:34:08 15° WSW
Cosmos 2219 4.2 00:37:44 31° E 00:37:44 31° E 00:42:05 10° NE
SME Rocket 3.8 00:39:22 51° W 00:39:22 51° W 00:43:04 10° NNW
COSMOS 2428 3.6 00:38:37 10° N 00:44:03 41° ENE 00:45:35 35° E
Cosmos 2322 Rocket 3.1 00:41:19 10° NW 00:46:27 35° WSW 00:46:33 35° WSW
Cosmos 1842 Rocket 3.9 00:42:55 10° N 00:46:48 64° NNW 00:46:48 64° NNW
BREEZE-M DEB (TANK) 4.0 00:45:57 22° WNW 00:47:32 38° N 00:54:57 10° ENE
ISS -1.3 00:45:46 10° NW 00:48:14 22° NNE 00:48:14 22° NNE
Meteor 2-5 Rocket 4.3 00:51:33 47° WSW 00:52:43 54° WNW 00:58:32 10° N
Meteor 1-16 Rocket 4.4 00:48:50 10° NNW 00:54:08 54° W 00:54:22 54° WSW
Lacrosse 5 3.2 00:51:06 16° W 00:54:37 37° NW 00:59:19 10° NNE
CZ-2C R/B 2.7 00:51:11 10° N 00:56:46 71° WNW 00:57:21 65° WSW
Cosmos 1802 Rocket 4.2 00:54:39 10° N 01:00:50 59° E 01:01:53 52° ESE
Cosmos 2100 Rocket 3.9 00:55:56 10° N 01:02:07 76° E 01:03:00 65° SE
Cosmos 407 Rocket 4.4 01:04:04 35° E 01:04:04 35° E 01:08:12 10° NE
H-2A R/B 4.3 01:02:55 10° NE 01:05:37 23° ENE 01:05:37 23° ENE
SeaSat 1 2.4 01:07:17 77° WNW 01:07:17 77° WNW 01:11:58 10° NNW
Lacrosse 5 rocket 3.4 01:03:59 10° WNW 01:05:59 22° W 01:05:59 22° W
USA 267 3.2 01:03:26 10° NE 01:09:59 80° NW 01:12:39 39° WSW
Cosmos 2219 Rocket 3.1 01:09:13 10° NNW 01:14:38 42° ENE 01:16:23 33° E
Cosmos 2333 Rocket 3.4 01:10:32 10° N 01:15:47 36° ENE 01:18:03 26° E
Cosmos 1992 Rocket 3.9 01:10:38 10° NNW 01:15:41 80° WNW 01:15:41 80° WNW
Cosmos 2297 Rocket 4.0 01:16:08 17° E 01:16:11 17° E 01:19:42 10° ENE
Cosmos 1674 4.1 01:17:39 35° NE 01:17:39 35° NE 01:20:11 10° NNE
Cosmos 1726 4.3 01:15:01 10° NNE 01:17:24 20° ENE 01:17:24 20° ENE
Meteor 1-24 Rocket 4.3 01:19:33 46° WSW 01:20:34 52° WNW 01:26:28 10° N
ALOS 2 4.1 01:26:07 28° WNW 01:26:07 28° WNW 01:29:03 10° NNW
Cosmos 1190 Rocket 4.1 01:25:26 67° E 01:25:26 67° E 01:30:36 10° NNE
Cosmos 2061 Rocket 3.8 01:21:17 10° N 01:27:31 81° W 01:28:22 68° SSW
Cosmos 2123 Rocket 4.2 01:26:45 53° SE 01:27:41 58° E 01:33:43 10° NNE
SL-8 R/B 3.9 01:29:48 66° NNW 01:29:54 66° NNW 01:34:40 10° ENE
CZ-2C R/B 4.2 01:30:00 34° W 01:30:02 34° W 01:35:11 10° NNW
Cosmos 2228 Rocket 4.5 01:28:38 10° NNE 01:32:38 30° ENE 01:32:56 30° E
CZ-4B R/B 3.6 01:37:48 23° NNW 01:37:48 23° NNW 01:39:09 10° NNW
Cosmos 2237 Rocket 3.4 01:32:11 10° N 01:37:24 37° ENE 01:40:03 24° ESE
Landsat 5 3.8 01:38:26 72° N 01:38:26 72° N 01:42:32 10° NNW
SL-16 R/B 4.4 01:37:47 10° WNW 01:39:17 12° W 01:39:17 12° W
Cosmos 1300 4.2 01:38:50 10° NNE 01:41:48 31° ENE 01:41:48 31° ENE
Cosmos 1408 Rocket 3.9 01:43:38 62° NNE 01:43:38 62° NNE 01:47:20 10° N
USA 234 3.6 01:37:40 10° ESE 01:44:06 62° NE 01:50:33 10° NW
Okean 3 Rocket 4.4 01:45:25 44° WNW 01:45:25 44° WNW 01:49:25 10° N
Cosmos 2221 3.7 01:45:49 10° NNW 01:48:52 33° WNW 01:48:52 33° WNW
Cosmos 1766 Rocket 3.8 01:53:42 65° NNW 01:53:42 65° NNW 01:57:31 10° N
Cosmos 2227 Rocket 2.6 01:53:35 46° ESE 01:53:59 46° ESE 01:59:23 10° NE
Cosmos 1725 Rocket 3.9 01:48:35 10° N 01:54:57 90° E 01:56:11 61° S
Geosat 4.1 01:52:42 10° NNE 01:57:41 65° WNW 01:58:10 61° W
Cosmos 2173 Rocket 4.5 01:52:35 10° NNW 01:58:15 42° W 01:58:52 41° WSW
ATLAS 2AS CENTAUR R/B 2.9 01:51:50 10° NW 01:59:53 80° WSW 02:02:31 45° SSE
SL-08 R/B 4.4 01:55:38 10° NNW 02:01:43 67° W 02:02:38 59° SW
Cosmos 1140 Rocket 3.7 02:02:19 55° ESE 02:02:34 55° ESE 02:07:39 10° NNE
NOSS 3-3 (A) 3.9 02:05:56 56° SW 02:07:21 82° NW 02:14:03 10° NNE
NOSS 3-3 (C) 3.9 02:06:03 57° SW 02:07:28 82° NW 02:14:08 10° NE
Cosmos 2151 3.9 02:09:37 39° E 02:09:37 39° E 02:13:28 10° NNE
Cosmos 1515 Rocket 3.8 02:07:46 10° N 02:12:09 62° E 02:12:11 62° E
Cosmos 1743 Rocket 3.6 02:14:02 78° ENE 02:14:02 78° ENE 02:18:17 10° N
NOSS 2-1 (E) 3.9 02:15:36 53° ENE 02:15:36 53° ENE 02:19:06 10° NE
DELTA 2 R/B (1) 3.9 02:15:49 47° SE 02:15:49 47° SE 02:20:19 10° E
Cosmos 2360 Rocket 4.1 02:13:00 10° WNW 02:15:18 15° W 02:15:18 15° W
Aureole 2 Rocket 3.2 02:12:17 10° NNW 02:16:12 63° NE 02:16:12 63° NE
Cosmos 1242 Rocket 4.1 02:13:50 10° NNW 02:15:51 29° NW 02:15:51 29° NW
Cosmos 2219 4.2 02:19:38 31° W 02:21:11 36° WNW 02:26:22 10° N
Cosmos 1455 4.2 02:21:00 10° NNE 02:24:08 23° ENE 02:25:13 20° E
Cosmos 1850 Rocket 4.3 02:25:09 48° SE 02:25:53 52° ESE 02:30:55 10° NNE
Cosmos 2082 3.6 02:25:59 60° S 02:26:56 74° ESE 02:32:33 10° NNE
COSMOS 2428 3.8 02:23:16 10° NW 02:27:34 28° W 02:27:34 28° W
Cosmos 1626 3.2 02:29:33 38° E 02:29:33 38° E 02:32:50 10° NNE
Cosmos 1023 Rocket 4.3 02:29:12 68° SW 02:29:53 82° WNW 02:35:07 10° NNE
Helios 1A Rocket 2.9 02:27:34 10° NNE 02:31:41 81° ENE 02:31:41 81° ENE
PSLV R/B 3.6 02:27:38 10° N 02:31:41 66° WNW 02:31:41 66° WNW
Cosmos 1328 4.2 02:33:08 54° NW 02:33:08 54° NW 02:36:37 10° N
Cosmos 1741 Rocket 4.2 02:33:00 51° SSE 02:33:59 60° ESE 02:39:14 10° NNE
Cosmos 1151 Rocket 2.9 02:31:35 10° N 02:35:58 85° E 02:36:06 83° SE
Cosmos 2058 2.9 02:39:02 74° E 02:39:03 74° E 02:43:10 10° NNE
Cosmos 1328 Rocket 4.2 02:35:52 10° NNW 02:39:43 44° WNW 02:39:43 44° WNW
H-2A R/B 3.7 02:38:11 10° N 02:42:00 31° WNW 02:42:14 30° WNW
Cosmos 1954 Rocket 4.5 02:44:43 42° WSW 02:45:46 49° WNW 02:50:51 10° N
SL-08 R/B 3.8 02:47:32 33° SE 02:49:40 61° ENE 02:54:34 10° N
CBERS-1 4.4 02:44:48 10° NNE 02:49:51 57° E 02:51:23 40° SSE
AQUA 4.3 02:47:39 10° NNE 02:52:18 51° E 02:53:35 40° SSE
Cosmos 1570 Rocket 4.0 02:47:24 10° NNW 02:52:48 83° ENE 02:54:58 37° SSE
Cosmos 1726 4.0 02:50:08 10° NW 02:52:00 20° WNW 02:52:00 20° WNW
Meteor 1-11 4.2 02:53:35 48° SSW 02:55:10 72° W 03:00:57 10° N
ARIANE 5 R/B 4.0 02:51:28 10° NE 02:55:47 27° E 02:58:24 18° SE
Meteor 1-27 4.2 02:52:04 10° NNW 02:57:53 73° W 02:59:47 44° SSW
Cosmos 2219 Rocket 3.2 02:53:36 10° NW 02:58:04 28° W 02:58:04 28° W
Cosmos 2297 Rocket 2.3 02:57:56 45° SW 02:59:36 66° WNW 03:05:15 10° NNE
Cosmos 2333 Rocket 2.9 02:54:55 10° NW 02:59:58 33° WSW 03:00:01 33° WSW
Cosmos 1980 4.1 02:58:09 10° NW 03:03:27 42° WSW 03:04:03 40° WSW
SL-16 R/B 3.1 03:00:45 11° SE 03:06:31 56° ENE 03:12:33 10° N
NPP 3.6 03:01:33 10° NNE 03:06:58 89° ESE 03:08:53 42° SSW
Cosmos 1238 4.4 03:07:30 71° N 03:07:30 71° N 03:10:15 10° N
Cosmos 1869 4.4 03:05:54 10° N 03:09:43 40° ENE 03:11:46 23° SE
Cosmos 1703 3.3 03:10:02 58° W 03:10:13 59° W 03:14:07 10° N
Resurs 1-4 Rocket 2.9 03:07:04 10° NNE 03:12:09 44° E 03:15:04 23° SSE
Cosmos 1707 Rocket 4.0 03:08:30 10° N 03:12:52 59° E 03:14:58 28° SSE
Lacrosse 4 Rocket 1.5 03:12:59 52° SSE 03:13:43 63° ESE 03:17:55 10° NE
Transit 2A Rocket 4.5 03:13:10 54° WSW 03:14:00 70° WNW 03:18:23 10° NNE
Cosmos 2034 Rocket 4.1 03:08:38 10° N 03:15:02 78° E 03:19:26 21° SSE
ATLAS 5 CENTAUR R/B 4.0 03:13:11 11° SE 03:15:29 15° ESE 03:18:07 10° ENE
Cosmos 2237 Rocket 2.9 03:16:26 10° NW 03:21:21 32° WSW 03:21:49 31° WSW
ADEOS Rocket 3.7 03:15:34 10° NNE 03:23:10 76° ESE 03:28:27 23° S
SL-16 R/B 2.1 03:19:12 10° NNW 03:24:52 73° WSW 03:28:34 22° S
USA 234 3.6 03:24:14 26° S 03:27:16 39° SW 03:33:20 10° WNW
Cosmos 1666 Rocket 3.7 03:25:38 36° S 03:27:22 74° E 03:31:50 10° NNE
Cosmos 468 Rocket 4.0 03:26:58 10° NNW 03:32:11 80° ENE 03:37:02 12° SSE
UNKNOWN OBJECT B 4.5 03:30:56 10° NE 03:34:26 29° E 03:37:03 15° SSE
Tsikada Rocket 4.1 03:32:38 24° S 03:36:43 86° E 03:43:10 10° N
Cosmos 2227 Rocket 3.6 03:35:24 18° W 03:38:15 27° NW 03:43:02 10° N
Spot 4 Rocket 4.0 03:34:19 10° NNE 03:39:29 87° ESE 03:42:18 28° SSW
BREEZE-M DEB (TANK) 4.2 03:28:35 10° W 03:39:47 66° NNW 03:43:31 10° ENE
CZ-2D R/B 2.1 03:35:34 10° NNE 03:40:49 80° ESE 03:43:59 25° S
OAO 3 Rocket 4.4 03:41:16 25° S 03:42:01 26° SSE 03:46:07 10° ESE
Cosmos 1805 Rocket 4.0 03:42:07 34° SW 03:43:33 48° WNW 03:47:50 10° N
UNK 3.6 03:45:07 24° S 03:47:54 71° WSW 03:52:32 10° NNW
Cosmos 1763 Rocket 4.0 03:44:11 10° NNW 03:49:23 61° ENE 03:54:28 10° SSE
ATLAS 2AS CENTAUR R/B 4.4 03:45:23 10° WNW 03:49:33 16° WSW 03:49:53 15° WSW
NOSS 3-4 (A) 3.8 03:44:43 10° NW 03:51:45 69° WSW 03:59:14 10° SSE
NOSS 3-4 (C) 3.8 03:44:48 10° NW 03:51:51 70° WSW 03:59:20 10° SSE
Cosmos 2263 Rocket 3.9 03:49:23 10° SSE 03:53:55 26° ESE 03:58:27 10° NE
IRS-1D 3.6 03:48:54 10° N 03:54:15 77° WNW 03:57:33 23° SSW
Cosmos 1814 Rocket 4.0 03:53:46 10° NNW 03:59:09 83° WSW 04:04:30 10° SSE
Cosmos 1455 3.5 03:56:38 10° NW 03:59:44 23° W 04:00:11 22° W
DELTA 2 R/B (1) 3.5 03:56:33 15° W 04:01:11 75° S 04:06:44 10° E
Cosmos 1626 4.3 04:04:13 12° W 04:04:54 13° WNW 04:06:41 10° NW
MOZ.5/SAFIR/RUBIN 5/SL-8 4.0 04:01:33 10° SSE 04:06:17 74° ENE 04:11:05 10° N
Sich 1 3.6 04:04:23 25° SW 04:06:22 41° WNW 04:10:30 10° N
Cosmos 1818 4.3 04:02:41 10° NNW 04:08:04 57° NE 04:13:24 10° SE
Cosmos 1633 Rocket 3.5 04:07:22 24° SW 04:09:35 45° WNW 04:13:46 10° N
Cosmos 1470 Rocket 3.5 04:09:00 18° S 04:12:11 87° W 04:16:32 10° N
ORS 1 (USA 231) 4.4 04:11:34 27° WSW 04:13:03 68° S 04:16:06 10° E
Cosmos 2285 Rocket 4.3 04:09:08 10° NNW 04:15:26 72° ENE 04:21:44 10° SSE
Okean O Rocket 3.9 04:12:40 10° NE 04:15:57 21° E 04:19:13 10° SE
Cosmos 220 Rocket 4.0 04:13:36 20° SSW 04:16:40 82° WNW 04:21:09 10° NNE
GP-B 4.3 04:14:06 10° NNE 04:18:20 41° E 04:22:31 10° SSE
Cosmos 1634 Rocket 3.9 04:12:28 10° N 04:18:42 86° W 04:24:51 10° S
Cosmos 1933 3.3 04:19:16 10° N 04:23:22 76° W 04:27:27 10° S
Cosmos 540 Rocket 4.4 04:24:00 10° N 04:29:03 51° ENE 04:34:03 10° SE
Cosmos 1354 Rocket 4.2 04:25:14 10° S 04:30:26 73° ESE 04:35:42 10° NNE
CZ-3A R/B 2.2 04:27:24 10° NW 04:30:26 73° NE 04:40:22 10° SE
Cosmos 371 Rocket 3.5 04:27:30 10° NNW 04:32:07 48° WSW 04:36:43 10° S
Cosmos 1400 Rocket 2.7 04:28:38 12° S 04:32:13 84° W 04:36:13 10° N
ARIANE 5 R/B 3.4 04:30:21 10° N 04:34:55 34° WNW 04:38:45 13° SW
ADEOS 4.5 04:34:19 10° N 04:39:00 34° WNW 04:43:10 12° SW
Meteor 1-26 Rocket 4.2 04:34:36 10° N 04:40:21 88° W 04:45:57 10° S
Cosmos 2297 Rocket 4.4 04:42:50 10° WNW 04:44:47 12° NW 04:46:46 10° NNW
Cosmos 1603 4.1 04:42:40 10° NW 04:48:01 42° WSW 04:53:18 10° S
USA 161 1.3 04:48:38 13° SSW 04:50:04 30° W 04:51:49 10° NNW
SL-16 R/B 3.7 04:45:50 10° SW 04:50:29 23° W 04:55:17 10° NW
Resurs 1-4 Rocket 3.5 04:47:30 10° NNW 04:51:42 24° WNW 04:55:55 10° WSW
Lacrosse 4 Rocket 3.6 04:50:30 10° W 04:52:54 15° NW 04:55:20 10° N
ADEOS II 2.6 04:49:23 10° NNE 04:54:38 63° ESE 04:59:50 10° S
ATLAS 5 CENTAUR R/B 2.0 04:54:46 10° SW 04:59:25 66° NW 05:04:31 10° NNE
Cosmos 304 Rocket 3.8 04:55:35 10° NNW 05:00:25 82° WSW 05:05:12 10° SSE
ATLAS 3B CENTAUR R/B 4.2 04:51:46 10° W 05:01:08 22° SW 05:06:01 10° SSE
Cosmos 841 Rocket 4.1 04:58:45 10° NW 05:03:32 36° W 05:08:17 10° SSW
RESURS DK-1 2.3 05:00:38 10° NNW 05:04:48 75° WSW 05:08:56 10° SSE
Cosmos 1867 3.7 05:00:57 10° SW 05:06:21 68° NW 05:11:49 10° NNE
Cosmos 2221 Rocket 3.7 05:03:53 10° N 05:08:28 87° E 05:12:58 10° S
UNKNOWN OBJECT B 4.4 05:05:43 10° NNW 05:08:45 21° WNW 05:11:44 10° WSW
PSLV R/B 3.8 05:05:48 10° N 05:09:47 75° WNW 05:13:39 10° SSW
CZ-3A R/B 4.3 05:04:15 10° SW 05:11:17 35° SSE 05:52:53 10° ESE
CZ-4B R/B 3.5 05:07:17 10° NNE 05:12:37 68° ESE 05:18:00 10° S
